ECMWFFLT1_850_spd_027.txt.gz
Wind_Speed
29 28 28 30 31 30 28 27 26 26 28 30 31 30 28 28 27 27 27 28 30 30 30 32 36 38 38 38 39 40 41 41 40 39 38 38 40 42 42 41 41 41 40 38 35 33 33 33 34 35 34 35 36 36 36 36 36 35 34 34 34 32 31
25 23 22 23 26 27 26 25 23 22 23 26 30 31 30 28 28 27 26 26 28 29 29 28 31 35 37 37 39 39 39 40 41 40 40 39 39 39 40 41 42 42 39 37 35 32 31 31 32 34 35 35 36 35 35 36 36 36 35 34 34 33 32
22 21 20 19 20 21 21 21 20 20 21 22 26 30 31 30 29 29 28 27 27 27 27 26 27 30 32 34 37 37 37 37 38 39 40 40 40 40 38 38 40 41 39 38 36 33 32 31 32 33 34 33 33 34 35 36 37 36 35 34 33 32 32
21 21 21 20 21 22 21 21 20 21 22 23 24 28 31 30 29 29 30 30 28 26 26 26 26 27 28 29 32 34 34 34 35 36 37 39 40 41 41 39 38 38 38 38 37 35 34 33 32 32 32 32 33 33 35 36 36 34 33 32 31 31 31
20 21 21 21 22 23 24 24 23 23 24 25 26 27 30 31 29 28 29 30 29 28 27 27 27 27 27 27 29 31 32 32 33 34 35 36 38 40 42 42 41 39 38 38 37 35 34 32 31 32 32 33 34 35 36 36 35 33 31 30 30 30 30
20 21 22 23 24 25 27 28 28 29 28 28 28 27 29 32 32 30 28 28 28 27 27 27 27 27 27 28 29 31 31 32 32 32 33 34 34 36 38 40 42 41 40 40 39 37 35 33 33 33 33 34 35 36 37 36 35 33 32 31 32 31 31
21 22 23 26 27 28 31 32 33 34 33 30 29 28 28 29 31 32 31 29 27 27 28 28 25 24 25 27 29 31 31 32 32 32 33 32 32 33 34 36 38 39 40 41 41 39 37 36 35 35 35 35 35 35 36 36 37 37 36 34 33 32 32
23 23 24 26 29 31 33 34 35 35 32 30 30 29 27 27 28 29 31 31 29 29 30 29 26 25 26 26 27 28 29 31 32 33 33 33 32 33 33 35 36 37 38 39 41 41 40 37 36 36 36 36 37 39 39 39 38 37 35 33 33 33 33
26 25 25 26 28 29 31 32 34 33 30 30 31 29 25 26 27 28 29 31 31 31 30 28 26 26 26 26 27 27 26 27 29 32 33 34 34 34 34 35 35 36 37 37 39 40 40 39 38 39 39 40 42 43 43 41 39 36 33 31 32 34 33
29 28 28 28 28 27 27 29 31 31 29 29 31 30 27 26 26 27 28 29 30 31 32 32 29 27 27 28 28 27 28 28 27 29 31 32 33 34 35 35 36 36 36 37 38 40 40 41 42 42 43 45 44 43 42 41 40 38 35 33 33 34 32
27 30 30 30 28 24 23 25 26 26 27 28 29 31 31 29 27 26 27 27 27 27 30 32 32 31 31 31 29 27 27 28 28 28 29 30 31 32 33 34 35 37 37 38 39 40 41 42 44 45 45 45 44 44 43 42 41 38 37 35 35 35 33
20 22 24 24 23 20 20 21 22 22 23 25 27 29 31 29 27 27 26 26 26 26 27 30 31 31 31 31 30 29 27 25 26 28 29 30 30 31 32 32 33 34 36 38 40 42 42 44 45 45 45 46 46 46 45 42 40 38 37 37 36 36 34
14 14 15 16 18 20 22 22 21 20 21 22 23 26 28 27 25 26 26 27 27 28 28 30 31 31 30 29 30 29 24 21 20 21 23 26 28 30 31 31 31 32 33 36 38 41 44 45 45 44 45 46 46 45 44 42 40 39 38 37 35 34 31
11 10 9 11 15 19 21 20 18 18 19 20 21 22 24 24 24 25 26 27 28 28 29 31 31 31 30 30 30 27 22 19 18 18 19 21 24 28 29 30 30 30 32 34 37 39 40 42 44 45 45 44 43 44 43 41 41 40 38 36 34 31 28
11 10 9 11 13 14 14 14 13 13 14 16 17 19 20 22 24 26 27 27 28 28 29 31 32 32 31 31 30 27 23 21 21 22 23 23 23 25 26 29 30 30 31 34 36 37 37 38 40 43 45 43 41 41 39 37 37 37 35 34 31 29 28
13 11 10 11 12 12 12 13 13 13 14 14 14 16 18 20 22 25 26 27 28 28 29 31 32 32 31 31 31 29 27 25 25 27 28 27 26 26 25 27 29 29 30 32 34 35 36 37 38 39 42 42 40 38 36 34 34 34 33 32 31 30 29
13 10 9 9 10 11 12 14 14 14 15 15 15 17 18 20 21 23 24 26 27 28 29 30 31 32 32 32 32 32 31 30 29 30 30 29 31 31 29 27 27 29 31 32 33 34 35 36 36 36 37 38 37 36 34 34 35 35 33 31 31 31 29
13 11 10 10 10 11 12 13 14 14 15 16 17 18 20 22 23 24 25 26 27 27 28 29 29 30 31 33 33 32 31 29 29 30 31 32 34 36 34 31 28 30 33 33 34 35 35 35 34 34 34 34 34 34 34 34 35 34 32 31 31 29 26
15 14 12 12 11 11 12 14 14 12 13 14 16 18 20 23 25 26 27 27 27 28 29 29 29 30 31 31 31 31 29 28 29 32 33 34 37 39 38 34 31 32 34 35 35 36 37 35 33 33 32 32 32 32 32 32 32 31 30 29 28 26 24
19 17 14 12 11 10 12 13 12 12 13 15 18 21 23 25 26 27 28 28 28 28 29 29 29 29 30 30 30 31 30 28 29 34 35 35 38 41 39 36 33 34 35 36 35 35 36 35 32 31 32 32 31 30 30 29 28 26 26 25 24 24 23
21 20 16 13 11 11 12 12 12 14 16 17 19 21 22 23 25 26 26 27 28 28 28 28 27 27 28 30 30 31 30 27 27 33 37 36 36 38 37 35 34 34 35 36 35 33 33 32 31 31 31 31 30 28 28 27 26 25 24 23 22 23 22
21 21 15 11 12 13 12 11 11 13 14 14 16 16 16 18 21 21 22 23 24 24 24 24 24 24 25 26 27 26 25 23 23 30 35 33 30 32 34 34 34 34 35 36 35 32 32 32 32 32 31 30 28 27 26 26 26 25 23 22 22 21 20
21 24 20 16 15 13 9 8 11 13 12 13 15 14 13 13 13 14 16 17 18 19 18 17 17 18 19 19 19 19 20 20 21 27 32 29 25 29 32 33 33 34 35 36 35 33 32 33 33 32 31 29 27 26 26 25 24 22 21 21 21 20 18
24 26 26 25 23 17 9 7 11 13 13 14 15 13 9 7 8 8 9 10 10 10 10 10 11 11 12 13 14 14 16 18 20 26 28 24 22 26 30 31 33 34 35 36 36 34 33 33 32 31 30 28 26 25 24 22 19 19 19 19 18 16 15
26 28 29 28 26 22 15 10 9 11 12 14 14 9 4 3 4 4 3 3 4 5 5 5 6 7 9 11 12 13 15 17 19 23 23 20 21 25 28 30 32 33 35 37 37 35 33 32 30 29 28 26 24 22 19 17 17 17 16 15 15 14 13
30 30 29 26 23 22 20 14 10 9 10 12 10 3 2 3 4 5 4 4 4 4 4 4 6 9 11 11 12 14 14 15 18 20 20 19 22 25 25 26 29 32 34 36 36 35 32 29 27 26 25 23 20 18 16 16 16 15 14 13 13 12 12
31 28 27 27 25 23 20 14 7 6 8 10 6 2 5 3 3 4 3 4 5 4 5 8 10 11 12 13 14 15 14 16 19 21 20 20 22 22 21 22 25 28 31 33 34 34 30 26 24 23 23 20 17 15 16 16 14 14 13 12 12 11 11
28 26 26 28 26 24 20 13 4 3 6 9 4 3 4 2 1 3 3 5 6 6 9 13 14 14 14 15 15 15 17 20 23 23 20 20 22 20 18 20 24 27 30 32 33 32 28 24 23 22 20 17 15 15 16 15 14 13 12 12 11 11 10
24 23 24 23 20 19 18 10 2 1 5 7 3 2 2 1 0 3 4 5 6 8 13 17 18 17 16 17 16 18 22 25 26 24 22 22 22 21 19 20 24 28 29 30 30 28 26 24 23 21 18 16 16 16 16 15 14 13 12 12 11 10 10
17 18 21 20 17 16 15 10 5 4 5 3 3 2 2 2 1 2 4 5 6 10 15 18 19 18 17 18 19 21 25 27 26 24 24 24 23 20 17 19 23 25 25 26 26 26 24 23 21 19 18 18 18 18 17 16 14 13 12 12 11 10 9
13 14 17 18 17 16 14 10 7 5 3 4 5 3 2 2 0 1 3 3 6 12 17 19 20 19 18 19 21 24 26 26 24 22 22 22 21 17 15 18 21 21 22 23 24 23 21 20 19 19 19 19 19 19 18 17 15 14 12 11 10 9 8
14 15 15 16 16 15 14 11 6 3 6 8 6 3 2 2 2 3 3 3 6 12 16 18 19 19 19 21 22 24 25 24 21 20 20 21 20 17 16 17 19 20 20 21 21 21 20 19 19 20 20 20 20 19 17 16 15 13 12 10 9 7 7
13 15 16 17 16 14 13 10 4 7 11 10 5 3 4 6 5 4 2 2 6 11 15 17 18 19 20 20 21 23 23 21 19 18 19 19 18 17 17 18 18 18 19 19 19 20 21 21 21 21 21 20 19 18 16 15 14 12 11 9 8 6 5
13 15 16 18 17 15 12 8 7 11 12 9 6 7 8 9 7 5 3 3 6 10 12 14 16 18 19 19 20 21 20 18 17 18 18 17 15 15 16 17 17 18 19 19 21 22 22 22 22 22 21 21 20 18 16 14 13 11 10 8 6 5 4
16 16 16 17 17 16 13 9 9 11 10 9 9 9 9 8 7 7 5 5 7 8 10 11 14 16 18 18 19 19 18 16 16 17 16 15 14 14 14 16 17 19 20 21 22 23 22 22 22 21 20 19 17 16 15 13 12 10 8 7 5 4 4
17 17 15 13 15 17 15 9 8 10 11 10 7 6 5 5 7 8 7 6 6 8 9 10 12 14 17 17 17 17 17 16 16 16 14 12 11 10 11 15 18 20 21 22 23 22 22 22 21 20 18 16 15 14 12 11 10 8 7 6 5 5 6

ECMWFFLT1_850_spd_033.txt.gz
Wind_Speed
25 22 21 21 20 19 17 18 22 24 22 21 22 24 25 26 25 25 23 22 21 22 21 21 21 20 21 21 21 22 22 24 25 27 28 26 27 33 40 43 42 40 41 38 36 35 34 33 33 33 34 35 35 34 34 36 37 36 36 41 44 43 42
24 22 21 21 20 18 16 16 18 20 20 21 21 22 23 25 25 24 22 21 21 21 20 20 20 21 21 21 20 21 22 22 24 25 27 26 26 29 35 41 42 42 43 40 38 39 37 35 34 33 33 35 35 34 34 35 37 36 36 39 42 42 40
23 22 21 19 19 18 19 17 15 15 16 16 18 20 22 24 25 23 22 21 20 19 18 19 20 22 22 20 20 20 21 21 22 24 25 25 25 26 31 36 39 41 43 41 39 40 40 38 37 36 35 35 35 34 34 35 36 36 37 39 40 41 39
20 20 19 19 20 21 21 20 17 15 14 12 13 15 17 20 24 23 21 20 19 17 16 17 19 21 21 20 20 21 21 20 21 23 24 24 24 24 27 32 36 38 41 41 39 39 41 40 39 37 36 35 35 35 34 34 35 34 36 37 38 40 39
18 19 21 23 24 23 22 21 19 17 16 14 13 14 14 15 17 18 19 19 18 17 15 15 16 18 19 19 20 22 21 19 20 21 23 23 23 23 25 30 34 35 38 40 39 38 39 38 37 36 35 34 34 35 35 35 35 35 35 35 36 38 39
20 21 23 25 26 26 25 23 21 20 18 16 15 16 15 14 15 17 18 19 18 17 15 15 16 16 17 19 20 21 21 18 17 19 22 22 22 23 25 29 34 35 36 39 39 37 36 36 35 34 34 34 33 33 35 35 36 36 35 35 34 36 38
21 23 25 27 29 29 27 26 25 23 21 19 17 16 17 16 17 19 20 20 20 18 16 16 16 15 17 19 19 20 21 20 18 18 20 21 21 22 25 29 32 34 36 37 37 37 36 34 34 33 33 32 31 30 32 33 36 38 39 39 37 35 35
22 24 27 29 31 31 31 29 28 27 25 23 20 19 18 18 19 20 21 22 21 19 18 18 18 17 17 18 19 19 20 22 20 18 19 21 21 21 23 26 29 32 35 36 36 36 35 34 33 32 31 30 30 30 31 32 34 36 38 39 39 38 36
22 24 27 29 30 31 32 33 32 31 29 27 24 22 21 21 21 22 23 23 23 22 20 19 20 20 19 19 20 19 19 22 22 19 19 21 22 23 22 23 25 28 32 34 35 35 34 33 32 32 32 32 32 32 32 31 31 32 32 32 34 35 36
18 20 23 24 26 27 29 33 35 34 32 30 27 25 24 24 24 24 25 25 25 25 23 21 22 22 21 20 20 19 20 21 22 22 20 20 21 24 24 23 24 26 29 31 32 33 33 32 32 33 33 33 33 32 31 30 29 30 30 30 30 31 33
14 14 16 18 20 22 24 27 31 33 34 33 31 28 27 27 27 27 27 27 27 27 25 23 22 22 21 20 19 19 20 21 22 22 22 20 19 23 25 24 23 25 26 28 29 30 30 31 31 32 32 32 31 31 30 30 29 30 31 31 32 33 34
11 11 11 13 15 17 20 21 23 26 30 33 33 31 29 29 29 29 29 28 28 27 26 25 24 23 21 20 19 19 20 22 23 23 23 21 20 21 25 25 23 23 24 25 26 27 28 28 28 29 30 30 30 30 30 30 30 30 31 32 33 34 34
10 9 8 9 10 11 15 17 15 15 20 25 29 30 29 29 29 29 29 29 28 27 27 26 25 24 24 22 21 21 20 21 24 24 24 23 21 21 23 24 24 23 22 22 23 25 26 25 25 26 26 26 27 28 29 30 31 32 33 34 34 33 33
10 10 10 10 9 7 9 11 10 9 11 15 19 23 25 26 26 27 27 26 26 25 25 26 26 27 27 25 23 22 22 21 23 25 26 25 24 23 23 24 25 24 23 21 21 22 23 23 22 22 21 21 22 24 25 27 28 29 30 32 32 32 31
14 14 15 15 14 11 7 5 6 7 8 9 13 17 20 22 23 24 24 23 24 23 23 25 27 27 26 24 22 22 21 21 23 24 25 27 27 25 24 25 27 27 26 24 23 22 21 20 20 18 17 17 18 19 20 21 22 23 25 28 30 30 30
16 16 16 16 16 14 10 4 3 4 4 6 9 12 16 19 20 21 22 22 22 23 22 23 25 25 24 23 21 21 21 21 23 23 24 26 28 26 25 26 27 29 29 28 26 24 21 19 18 17 16 16 16 17 18 20 22 23 24 27 29 30 30
14 13 12 12 13 13 10 6 4 4 5 6 7 7 10 13 15 16 19 20 21 20 20 21 21 21 21 22 22 22 22 22 23 23 24 25 25 25 25 24 23 27 31 31 29 27 24 22 21 20 19 17 16 16 17 19 23 25 25 27 28 29 30
11 10 10 11 12 12 11 7 4 4 6 7 7 8 9 10 12 14 16 17 18 18 18 19 19 19 21 22 23 24 24 23 23 24 24 25 23 22 23 21 18 19 25 28 27 25 24 22 22 22 22 20 18 17 18 20 22 23 24 26 28 29 29
12 11 9 10 11 13 12 8 4 3 4 4 5 8 9 10 11 12 13 14 16 17 18 19 20 20 21 23 24 24 23 23 23 24 25 25 26 25 23 21 18 15 17 21 22 21 19 18 17 19 20 20 19 19 19 19 19 20 23 25 27 29 29
13 13 11 11 11 12 12 9 7 6 6 5 6 8 10 11 12 12 13 15 16 18 19 20 21 22 22 23 23 23 22 21 22 25 26 26 29 29 25 22 21 19 18 19 19 18 17 17 16 17 18 20 20 21 20 19 19 20 20 22 25 28 28
14 14 14 13 12 12 13 11 10 10 10 9 9 9 10 12 13 14 16 18 19 20 22 22 23 24 24 24 24 23 22 21 22 25 28 29 31 29 24 22 24 23 22 21 20 19 19 18 18 18 19 20 22 22 21 20 20 19 18 19 22 24 26
15 16 16 16 16 16 16 14 11 11 13 13 13 13 12 13 14 15 17 19 20 22 23 24 24 25 25 26 25 24 23 23 23 24 27 30 30 27 25 24 25 25 25 25 25 26 24 22 22 22 22 22 23 23 22 21 21 19 18 19 20 21 22
15 17 18 18 19 20 19 18 15 12 13 15 15 16 16 15 15 16 16 18 19 20 20 20 21 22 24 26 27 26 25 24 25 25 26 27 27 27 27 27 27 27 27 27 27 28 28 27 27 27 27 25 24 23 23 23 22 20 19 19 19 20 19
17 20 21 20 21 22 21 21 20 15 12 15 17 16 15 14 15 16 16 17 16 15 15 15 15 16 18 20 23 27 27 26 26 27 27 27 27 28 28 30 31 30 29 28 28 28 29 29 30 31 31 29 25 22 23 24 23 21 20 19 19 20 19
21 23 23 21 22 23 22 21 21 17 10 11 15 14 12 12 12 12 11 11 10 10 12 13 14 14 16 17 19 23 27 28 29 29 29 28 29 29 31 34 35 33 31 30 30 29 29 30 31 32 33 30 24 22 23 25 24 23 21 20 20 21 21
24 24 24 23 24 24 21 20 19 13 5 4 9 10 8 7 6 6 6 6 8 10 12 13 12 12 13 14 14 15 19 23 27 29 29 30 30 32 35 37 37 35 33 32 32 32 32 32 32 32 32 30 25 23 23 25 24 24 23 22 22 22 22
27 25 24 25 26 24 20 18 15 8 3 3 4 3 1 3 4 4 5 6 8 9 10 9 10 10 9 10 10 11 12 15 18 20 22 24 25 26 29 33 34 34 34 34 34 35 34 33 32 32 31 30 27 25 24 24 24 23 23 23 23 22 23
26 25 23 24 25 24 20 16 12 6 3 3 1 2 3 3 3 4 4 5 6 6 7 7 8 9 9 10 11 12 12 13 13 13 14 15 15 16 20 24 28 30 31 31 31 31 30 30 29 30 30 29 27 25 24 24 23 22 23 24 24 23 23
22 21 21 21 22 21 17 14 9 5 3 2 1 3 2 2 3 4 4 4 3 4 5 6 7 8 9 9 9 10 10 10 10 9 10 11 12 13 15 17 20 22 23 22 22 23 24 25 27 29 29 28 26 25 24 24 23 22 23 23 23 22 22
17 17 17 17 19 19 15 11 8 5 3 1 2 2 3 3 4 4 5 5 3 2 3 4 5 6 5 5 7 8 8 8 9 11 12 13 13 12 12 13 13 14 15 16 17 18 20 23 26 28 28 27 26 26 25 24 24 23 22 22 22 22 21
14 14 14 14 17 17 14 9 8 7 5 4 5 5 4 4 5 5 5 4 3 2 2 2 3 3 4 5 6 7 7 9 12 13 13 13 12 11 10 10 11 12 13 15 16 17 19 22 26 27 28 27 26 26 26 25 24 23 22 21 20 20 20
15 13 14 13 13 13 12 11 10 10 9 8 8 6 5 5 6 6 6 5 4 2 1 0 1 2 4 6 7 8 9 11 13 13 11 10 10 10 9 8 10 12 13 14 15 17 20 23 25 26 27 27 26 26 25 24 23 22 20 19 18 18 18
15 14 15 15 12 11 11 11 10 11 11 10 8 7 6 5 6 7 8 8 6 5 3 2 2 3 4 6 7 8 10 11 11 9 7 7 8 9 9 8 10 12 13 12 13 16 19 22 25 26 26 26 24 23 23 22 21 20 19 19 19 19 18
16 15 15 16 13 12 12 11 10 10 10 9 9 9 8 6 6 8 9 9 7 6 5 5 5 5 5 6 7 8 9 9 8 7 6 6 7 7 8 9 12 13 12 12 13 16 19 22 25 25 24 23 23 22 21 20 20 20 20 20 20 19 18
18 17 15 14 14 15 14 12 11 11 10 10 11 11 9 7 7 8 9 9 8 6 6 6 6 6 6 6 6 7 8 7 7 6 6 6 6 6 8 11 13 13 12 12 13 15 19 23 24 22 20 20 21 21 20 19 19 20 20 19 19 17 16
18 16 13 11 12 13 13 11 11 11 10 10 11 10 9 8 8 9 10 10 9 8 7 7 7 7 7 7 6 7 7 6 6 6 6 6 5 5 8 12 14 13 14 14 14 16 20 22 21 19 17 17 17 17 18 18 19 19 18 17 16 14 13

ECMWFFLT1_850_spd_036.txt.gz
Wind_Speed
30 29 28 28 28 28 28 27 23 20 20 21 23 25 27 28 26 26 26 27 27 25 26 28 27 25 24 22 21 22 24 24 23 24 25 24 25 26 27 26 26 29 32 31 29 28 28 29 30 31 32 33 34 34 35 35 35 36 36 37 38 39 40
27 27 26 25 25 24 24 23 21 20 21 21 20 20 24 26 26 27 26 28 30 26 23 26 27 25 24 22 20 21 23 24 23 23 24 24 25 26 26 27 26 28 30 31 31 31 30 30 30 30 31 32 33 34 34 33 33 34 34 34 36 37 39
20 21 21 19 18 19 20 21 22 22 23 22 19 16 18 20 22 25 26 28 30 28 25 26 26 26 24 22 21 22 24 25 25 25 25 25 25 25 26 26 27 27 29 30 31 32 32 32 32 32 31 31 31 31 31 31 31 31 31 32 34 36 37
19 20 20 17 16 18 21 23 24 23 23 23 20 16 14 15 16 20 25 27 28 28 26 24 24 24 23 22 21 22 23 25 25 25 25 25 25 26 26 26 26 27 28 29 30 31 32 33 33 33 32 32 31 30 29 29 30 31 31 32 33 35 36
22 22 22 21 21 22 24 25 25 25 24 23 22 19 15 14 13 14 19 24 27 28 26 24 23 22 21 22 22 23 23 24 24 24 23 23 24 25 26 25 25 26 27 28 29 29 30 32 33 33 33 33 33 32 31 30 31 31 31 32 33 35 36
22 23 23 24 24 25 25 26 27 28 26 24 23 22 18 15 14 14 16 19 22 26 26 23 22 20 20 21 22 23 24 24 24 23 21 20 21 24 25 24 24 25 26 28 29 29 30 31 32 33 34 34 33 34 33 32 31 31 32 32 33 35 36
22 22 23 24 24 25 26 28 29 29 28 26 24 25 22 18 15 17 19 17 17 22 24 22 20 19 19 20 20 21 23 25 24 22 20 18 18 20 23 23 23 24 26 28 29 31 31 32 32 33 34 34 33 32 32 32 31 32 33 34 35 36 36
21 21 22 23 24 25 26 29 31 30 30 29 27 27 27 21 17 17 19 18 18 20 22 21 20 19 19 19 19 20 20 22 23 22 21 18 16 18 21 22 23 23 25 28 30 31 32 32 32 33 33 33 33 33 33 33 33 34 34 34 35 36 36
19 19 19 21 22 24 25 28 30 30 31 32 30 30 30 26 21 19 18 18 18 20 21 21 21 20 19 18 19 19 18 19 20 22 23 21 18 18 20 23 24 23 24 27 30 32 32 32 33 33 34 35 35 36 36 35 34 33 32 32 32 34 35
16 16 16 17 18 20 22 24 26 26 28 31 32 33 33 31 26 22 20 19 19 20 21 22 23 21 19 19 19 19 18 18 18 21 23 23 21 20 20 22 24 24 24 27 31 33 33 33 33 34 35 36 35 35 35 35 33 32 32 32 32 33 34
14 12 12 14 16 17 18 19 20 20 21 24 28 32 35 35 31 26 24 21 21 22 23 24 24 24 22 20 20 21 21 19 19 20 22 23 23 22 21 21 23 25 25 25 29 32 33 34 34 34 35 35 34 35 35 34 33 33 33 33 34 34 34
11 10 9 10 12 14 15 16 15 16 17 18 22 28 33 36 35 31 28 25 23 23 24 25 25 26 24 22 22 22 22 21 20 20 22 25 25 24 23 23 24 25 26 26 27 30 32 33 32 32 34 35 34 34 34 33 34 34 33 33 33 34 33
10 9 8 9 9 9 10 11 10 11 12 13 16 21 27 33 36 35 32 29 27 25 25 26 26 26 26 24 23 23 22 22 21 21 22 25 27 25 23 23 23 23 25 26 25 27 30 30 30 30 31 32 33 33 33 34 34 34 34 32 31 31 30
12 11 10 10 11 11 10 7 4 6 8 10 12 15 20 27 33 35 35 33 31 29 27 27 26 27 28 26 25 24 23 22 22 21 21 24 26 26 24 23 23 22 22 24 25 26 27 26 26 26 25 26 28 29 30 31 32 32 33 31 29 28 26
14 13 12 12 12 12 11 10 6 3 4 7 9 11 15 21 26 30 34 34 33 31 29 28 27 28 29 28 25 25 25 24 24 23 22 22 25 27 26 25 24 23 21 22 24 25 25 24 23 21 21 22 23 23 23 25 27 28 28 28 28 27 27
13 12 11 10 11 11 10 9 7 5 4 5 8 10 14 17 20 23 27 29 30 29 27 26 27 28 28 26 24 25 26 26 26 25 25 24 25 27 28 28 26 24 22 23 23 23 23 22 20 19 19 18 18 19 19 21 23 25 26 27 28 28 28
12 11 10 10 10 10 9 7 7 6 6 7 9 11 12 15 17 21 22 22 22 22 22 22 22 23 23 22 22 24 25 25 24 23 23 24 25 26 28 28 26 25 24 24 24 23 22 21 19 18 17 17 17 18 18 19 23 25 26 26 26 27 27
13 12 11 11 11 10 10 9 6 5 5 4 5 8 8 7 10 15 19 20 20 19 19 19 19 20 20 21 21 22 24 24 23 21 22 23 24 25 27 28 28 27 26 25 25 25 25 23 20 18 18 18 18 18 19 21 23 24 25 25 25 25 24
14 14 12 11 11 11 11 11 9 7 6 5 3 4 5 4 4 6 10 13 15 16 17 18 20 20 20 20 20 20 22 23 22 22 23 24 25 26 27 28 29 29 28 26 25 25 26 25 23 20 18 18 19 19 20 20 20 21 22 23 23 24 24
15 15 13 12 12 12 12 13 12 9 9 9 7 6 6 7 7 7 8 10 12 13 15 18 19 19 19 19 19 19 20 21 21 23 23 24 25 27 27 27 27 27 26 24 24 24 25 26 24 21 19 19 20 21 21 21 21 21 20 20 22 23 24
16 16 14 12 13 14 14 14 13 12 10 11 12 11 12 12 11 11 12 13 13 15 16 17 18 19 19 19 20 19 19 20 21 23 24 24 25 26 25 25 25 24 22 21 21 23 25 25 24 22 20 20 21 22 21 20 20 20 18 17 19 20 22
18 18 16 15 15 16 16 15 14 14 13 11 13 15 15 15 14 13 13 15 16 18 19 19 19 20 20 20 21 21 21 21 22 22 24 24 23 23 24 24 24 24 24 22 21 22 25 26 24 22 21 21 21 21 20 20 19 17 16 16 16 15 16
21 20 20 19 19 19 20 18 16 17 16 12 12 13 14 15 15 14 13 14 15 16 17 19 20 21 22 23 23 23 22 22 23 24 25 25 23 23 24 25 24 24 25 24 23 24 26 26 24 23 22 22 21 20 20 20 19 17 16 17 16 15 14
24 24 24 23 22 23 23 20 18 18 15 11 8 9 12 13 13 12 13 13 13 13 13 14 14 15 17 19 22 23 23 24 25 25 25 25 24 23 23 26 28 26 25 25 25 26 28 28 26 24 22 21 20 19 19 19 19 19 18 19 19 18 16
27 26 26 26 25 26 25 21 17 15 11 9 8 5 7 8 8 8 9 9 9 9 8 9 10 10 11 12 15 18 21 24 27 27 25 23 23 23 23 25 28 28 27 26 26 26 28 30 31 29 25 21 18 18 19 20 20 20 20 20 21 20 19
28 27 28 28 27 27 25 20 16 11 6 5 6 5 2 2 2 3 4 4 5 6 6 7 8 8 9 10 12 13 16 19 23 27 27 25 23 25 26 26 27 27 28 28 27 26 26 28 29 30 28 23 20 20 22 23 22 21 22 22 21 21 21
27 26 29 29 28 27 24 18 14 10 5 4 6 4 2 3 4 4 4 4 5 6 6 6 7 7 7 8 9 10 11 13 16 21 27 28 27 26 27 28 28 29 29 30 29 29 28 27 26 26 26 25 23 23 25 25 22 20 22 23 22 22 23
24 25 28 28 26 25 23 16 12 10 8 6 7 5 4 5 5 5 5 6 5 5 6 5 5 5 6 6 6 6 6 7 9 12 19 26 30 30 29 28 29 30 32 33 32 32 31 30 28 27 26 25 25 26 28 27 22 19 21 23 23 23 24
21 23 26 25 23 22 19 15 11 11 9 8 7 6 6 6 5 5 6 6 4 4 4 4 4 4 5 6 7 7 6 5 5 6 9 14 20 25 28 30 30 30 31 34 35 35 35 33 31 31 30 28 27 28 29 28 23 20 20 22 22 23 22
17 19 21 21 19 16 14 13 12 11 8 8 7 7 7 7 6 6 6 4 3 4 4 3 3 4 5 5 5 5 5 4 3 3 4 6 9 12 17 21 25 27 29 33 35 36 35 34 33 33 33 31 30 30 30 27 24 20 20 20 20 20 21
14 15 16 17 15 12 11 12 11 10 9 9 9 9 9 8 7 6 4 3 5 6 4 4 3 1 1 1 1 2 3 2 2 2 4 6 8 8 8 10 14 18 22 26 28 28 28 29 29 29 30 29 29 29 28 26 23 21 20 19 17 17 19
14 13 15 16 15 13 12 11 12 13 13 13 12 11 11 10 7 5 6 7 8 7 5 5 5 4 4 4 3 3 2 2 3 5 6 7 8 9 8 8 9 11 13 15 17 18 19 20 21 23 24 25 26 27 26 24 23 21 20 19 17 16 17
13 13 14 16 18 17 14 12 12 13 13 12 12 12 11 10 7 6 6 8 10 9 7 7 6 6 6 6 5 5 4 5 7 8 7 7 7 7 8 9 10 11 12 12 13 14 16 17 18 19 21 23 25 25 24 23 22 22 20 19 18 18 17
13 13 12 12 14 13 11 9 9 10 10 10 10 10 10 8 7 6 6 7 9 10 9 8 8 8 8 7 6 5 5 6 7 7 6 6 6 5 6 9 10 12 13 14 14 14 14 15 16 18 20 22 25 24 22 21 22 21 20 19 19 19 18
15 14 13 11 10 9 8 8 8 8 8 8 9 9 9 7 7 7 7 7 9 9 8 8 9 8 8 8 6 4 5 6 7 6 5 5 5 4 4 7 11 12 13 13 14 14 14 13 14 16 19 21 22 22 21 21 21 20 19 19 19 18 18
16 14 12 10 9 9 9 9 9 9 8 8 9 9 8 7 7 8 8 8 9 9 9 9 10 10 10 9 7 6 6 6 5 5 5 5 4 3 3 7 11 13 13 12 13 14 14 14 14 15 18 20 20 20 19 19 19 18 17 17 16 17 17

ECMWFFLT1_850_spd_039.txt.gz
Wind_Speed
24 25 25 25 27 28 29 29 29 30 30 30 30 29 27 27 26 27 30 30 30 30 31 33 34 36 36 37 38 39 39 39 38 36 35 33 33 34 32 31 31 32 33 34 31 27 24 22 23 25 27 29 29 31 39 48 54 55 55 54 54 53 53
22 21 19 18 19 21 24 25 25 24 24 24 24 23 24 26 27 27 27 27 28 29 31 32 33 35 35 34 36 38 39 37 35 32 32 32 33 34 33 30 29 31 33 33 31 30 28 25 24 24 25 27 29 28 29 34 42 49 53 53 53 53 53
19 19 18 17 18 18 19 20 20 19 20 21 21 23 25 26 27 26 23 22 25 28 30 31 32 34 33 31 33 37 37 34 31 30 30 30 31 32 32 31 30 30 31 32 31 30 29 28 26 26 25 25 26 27 27 27 29 35 41 45 48 50 52
18 19 20 21 22 23 22 21 21 19 19 21 22 25 26 27 28 26 22 21 24 26 28 30 33 34 33 30 30 32 33 31 30 29 28 28 29 29 29 30 31 31 31 30 29 29 29 29 27 27 27 26 25 26 26 27 27 28 30 33 38 42 46
20 21 22 23 25 25 24 25 25 24 23 24 25 26 27 27 28 26 21 20 21 23 25 27 32 35 34 32 30 29 29 30 30 29 28 28 30 30 29 28 29 32 33 31 29 28 28 27 27 27 27 27 27 27 27 27 27 28 29 30 32 35 39
21 22 23 23 24 24 25 26 28 28 28 28 27 28 28 29 29 27 23 19 18 21 23 24 27 32 34 34 31 29 29 30 31 30 30 30 30 30 29 28 27 29 32 33 31 28 27 26 26 27 28 28 28 29 29 28 28 28 29 31 32 34 36
23 23 22 22 22 23 24 26 28 30 31 30 30 30 30 30 30 28 24 20 18 21 22 21 22 27 32 33 30 29 31 31 31 31 31 30 29 29 29 28 27 26 27 29 30 28 27 27 25 25 27 28 29 29 29 29 29 30 30 31 33 34 35
22 21 21 21 21 21 23 24 26 28 29 30 31 32 32 31 32 31 27 22 20 20 19 20 21 22 26 29 28 27 29 30 30 31 30 29 29 30 29 27 25 24 24 25 26 26 26 26 25 25 26 27 29 31 31 30 30 31 32 33 34 34 35
19 19 19 18 18 19 20 22 23 24 25 27 29 32 32 32 32 33 31 26 22 21 22 22 21 19 20 23 25 25 25 27 28 29 30 29 29 29 27 24 23 22 22 24 24 24 25 26 26 26 26 27 30 31 32 33 33 33 32 33 34 34 34
16 16 16 16 16 16 17 18 19 18 19 21 24 28 31 33 33 33 34 31 26 23 24 24 20 20 21 21 22 22 22 23 23 25 27 28 29 29 27 24 21 21 22 23 24 24 24 26 27 27 27 28 28 28 31 33 34 34 33 33 34 34 34
15 13 13 14 14 14 14 15 14 14 14 16 18 22 27 31 34 34 35 36 32 26 24 23 20 21 22 22 22 22 21 21 21 22 23 25 26 27 27 24 22 22 22 23 25 25 25 27 28 28 28 28 27 28 31 32 33 34 36 36 36 36 36
14 13 12 12 12 11 11 10 9 11 12 12 14 17 21 26 31 34 36 38 36 31 26 23 21 22 23 23 23 22 21 20 21 21 22 23 24 26 27 26 24 22 22 23 25 26 26 27 28 28 28 29 29 30 30 32 33 35 36 37 37 37 37
14 13 13 12 12 12 11 8 5 6 9 11 12 14 18 23 27 31 36 39 39 35 30 26 23 23 24 24 24 24 23 21 21 22 23 23 25 26 28 28 27 24 22 21 22 24 26 27 28 28 28 28 29 30 30 33 35 36 36 36 37 37 35
15 14 14 13 13 12 10 7 5 5 5 8 10 12 16 22 24 28 34 39 41 39 35 30 25 24 24 24 24 26 26 24 23 23 24 24 25 27 29 30 29 26 24 23 22 23 25 27 27 26 25 25 27 28 29 32 34 35 35 35 35 35 34
17 15 15 14 13 12 10 7 6 4 3 5 8 10 13 18 21 23 29 35 39 39 37 33 29 26 25 25 26 27 28 27 26 25 25 26 26 27 29 30 30 29 27 26 24 23 23 25 27 26 23 22 23 25 26 29 31 32 33 34 33 34 33
17 16 16 13 13 14 13 10 8 6 4 6 10 13 17 20 21 21 21 26 33 37 37 35 32 29 28 27 27 28 28 28 27 27 27 28 28 28 28 30 31 31 29 26 24 23 21 22 25 26 23 20 20 21 24 28 31 33 33 34 34 34 33
16 16 16 14 13 15 15 13 12 10 8 8 9 12 15 16 20 22 19 17 22 30 34 35 34 31 29 28 28 28 28 28 28 28 29 29 28 28 28 28 29 30 30 28 25 22 20 20 21 23 22 19 17 18 21 26 31 33 34 34 34 34 34
17 14 14 14 13 14 16 16 14 12 10 10 10 9 10 11 12 16 19 16 14 18 25 31 33 32 30 29 29 28 28 28 28 28 30 31 30 29 29 28 27 27 29 30 27 23 21 20 20 20 20 19 18 18 19 22 27 30 32 33 33 33 32
19 16 14 13 13 13 15 17 16 13 11 10 11 10 7 8 9 10 14 18 16 14 15 20 24 26 26 26 25 24 24 24 24 26 30 32 31 30 30 29 28 26 26 28 29 26 23 22 21 20 19 19 19 19 19 19 21 24 28 29 30 30 30
21 19 17 15 13 13 14 16 16 14 11 10 12 12 9 7 7 6 7 13 16 17 16 16 18 20 20 21 20 18 18 19 20 24 28 30 30 29 28 27 27 26 25 26 28 28 25 25 23 21 20 20 19 19 20 20 19 20 22 24 26 27 27
22 21 20 17 14 15 15 14 15 16 13 10 11 13 12 11 11 10 8 8 11 14 15 16 17 18 17 17 17 17 18 19 21 22 25 27 28 28 25 23 23 23 23 23 26 28 28 26 23 22 22 22 21 20 20 20 20 19 18 19 21 22 23
23 23 23 19 15 18 19 14 14 17 16 12 9 11 15 16 16 15 15 13 12 13 14 14 16 17 18 19 20 21 21 20 20 20 21 23 24 24 22 20 20 21 21 22 26 28 28 25 21 21 23 24 24 23 22 21 21 20 19 19 19 18 19
26 26 27 23 20 23 22 16 14 16 15 12 10 8 10 15 17 18 17 16 14 13 14 15 15 16 18 20 22 23 22 21 20 20 21 22 23 22 22 21 21 21 22 23 25 26 25 22 21 21 23 26 26 25 24 23 23 22 21 21 20 18 16
28 28 29 28 27 27 24 18 15 13 11 10 12 11 7 6 10 12 13 11 10 10 11 13 14 15 17 19 21 22 23 22 22 22 22 23 24 24 23 24 23 23 23 24 25 25 24 24 23 23 24 26 26 25 24 24 23 22 22 22 21 19 17
29 28 30 31 32 30 24 18 15 11 8 9 10 10 8 3 1 4 6 7 7 7 7 7 8 10 12 15 17 19 21 23 24 25 25 25 25 25 26 27 26 24 25 26 27 27 27 25 23 23 24 25 25 25 25 24 24 23 22 21 21 19 18
29 29 30 31 31 28 22 18 14 10 8 9 8 7 6 4 3 2 3 4 4 4 4 4 4 5 7 9 10 13 16 19 21 24 26 27 26 25 26 29 30 28 27 27 27 26 26 25 23 23 24 24 24 24 23 23 24 24 23 22 20 19 19
27 27 29 31 29 23 19 16 14 12 12 11 7 6 5 4 4 3 3 3 3 4 5 5 4 4 5 6 7 8 11 13 16 18 22 25 27 26 25 28 31 30 28 27 27 25 24 24 25 25 25 25 24 23 21 21 22 23 24 23 22 20 20
25 25 28 30 28 21 16 15 15 14 14 13 10 7 6 5 5 6 6 5 4 3 3 3 2 2 3 4 4 5 6 7 9 12 15 19 23 26 26 26 29 30 28 27 29 28 27 26 27 28 29 29 28 26 23 21 20 21 22 23 24 23 22
20 21 25 28 26 20 16 16 15 15 15 13 12 12 11 9 9 8 7 5 3 3 2 1 1 2 3 4 4 5 6 6 5 6 8 11 16 23 27 27 28 31 31 31 31 30 29 29 29 29 30 30 31 31 27 23 21 22 23 23 23 24 24
15 15 20 24 22 18 16 16 14 13 14 14 13 12 12 12 11 9 6 4 3 3 2 0 3 5 5 5 6 6 6 4 4 3 4 5 8 16 23 27 27 27 29 31 33 32 30 30 31 31 31 31 32 33 31 27 23 23 25 25 23 23 23
11 10 13 18 18 16 14 12 11 11 11 12 12 12 12 12 11 8 5 4 4 3 2 2 2 2 2 2 2 2 1 2 3 2 2 4 5 8 15 21 24 24 24 27 30 31 31 30 30 31 32 32 32 34 35 32 27 25 27 26 23 21 22
11 10 9 11 13 14 12 10 11 11 12 13 13 12 12 12 11 9 6 6 6 6 5 5 5 4 4 4 3 2 1 0 1 2 2 2 2 3 6 10 15 19 21 23 26 29 31 32 33 34 34 34 34 36 36 33 29 28 29 27 22 19 20
12 12 10 9 10 11 12 13 13 13 13 14 13 12 12 12 11 10 8 7 7 8 9 9 8 7 7 7 7 6 5 5 6 6 5 5 3 3 4 5 7 10 12 16 20 25 29 32 33 34 35 36 36 36 35 33 31 31 30 26 22 19 19
12 12 12 11 9 9 11 12 13 13 14 14 13 13 13 11 10 10 8 7 7 9 10 10 9 9 9 8 8 9 8 8 7 6 5 5 4 3 3 5 7 8 9 10 12 16 21 25 28 30 31 32 33 33 32 31 31 30 28 24 22 21 20
14 13 13 12 10 10 11 11 12 13 13 13 13 13 11 9 9 10 9 9 10 11 11 11 10 10 11 10 10 10 9 7 7 6 5 4 3 2 1 2 6 8 9 9 10 10 12 15 18 21 23 24 25 27 27 27 27 26 24 22 20 20 19
17 14 12 10 9 10 11 11 12 13 13 12 11 10 10 10 10 11 11 11 13 13 12 12 11 11 12 11 10 9 8 7 6 4 3 3 2 1 1 2 5 8 10 10 10 10 10 12 13 14 16 17 19 20 21 22 22 21 20 19 18 17 17